User: anonymous
Location: Ostrava
(49.8330°N, 18.2830°E)
Time: 08:24:46
(UTC+02:00)
Language:

Explorer 7 - Orbit

View from above orbital plane
View from above orbital plane
View from above satellite
View from above satellite

Ground track
Ground track

The orbit data is extracted from the following two-line orbital elements,

1 00022U 59009A   14204.10015905  .00000577  00000-0  72856-4 0  9709
2 00022 050.2859 116.4817 0154371 319.1858 039.7607 14.89451106903002
Epoch (UTC): 23 July 2014 02:24:13
Eccentricity: 0.0154371
inclination: 50.2859°
perigee height: 492 km
apogee height: 707 km
right ascension of ascending node: 116.4817°
argument of perigee: 319.1858°
revolutions per day: 14.89451106
mean anomaly at epoch: 39.7607°
orbit number at epoch: 90300

The dashed part of the orbit path shows where the satellite is in the earth's shadow,  

DLR